QPF
0.00 0.00 0.01 0.02 0.02 0.03 0.03 0.02 0.00 0.00 0.00 0.00 0.00 0.00 0.00 0.00 0.00 0.00 0.00 0.00 0.00 0.00 0.00 0.00 0.00 0.00 0.00 0.00 0.00 0.00 0.00 0.00 0.00 0.00 0.00 0.00 0.00 0.00 0.00 0.00 0.00 0.00 0.00 0.00 0.00
0.00 0.01 0.01 0.01 0.02 0.02 0.03 0.02 0.00 0.00 0.00 0.00 0.00 0.00 0.00 0.00 0.00 0.00 0.00 0.00 0.00 0.00 0.00 0.00 0.00 0.00 0.00 0.00 0.00 0.00 0.00 0.00 0.00 0.00 0.00 0.00 0.00 0.00 0.00 0.00 0.00 0.00 0.00 0.00 0.00
0.01 0.01 0.01 0.00 0.00 0.01 0.01 0.01 0.00 0.00 0.00 0.00 0.00 0.00 0.00 0.00 0.00 0.00 0.00 0.00 0.00 0.00 0.00 0.00 0.00 0.00 0.00 0.00 0.00 0.00 0.00 0.00 0.00 0.00 0.00 0.00 0.00 0.00 0.00 0.00 0.00 0.00 0.00 0.00 0.00
0.01 0.01 0.01 0.00 0.00 0.00 0.00 0.00 0.00 0.00 0.00 0.00 0.00 0.00 0.00 0.00 0.00 0.00 0.00 0.00 0.00 0.00 0.00 0.00 0.00 0.00 0.00 0.00 0.00 0.00 0.00 0.00 0.00 0.00 0.00 0.00 0.00 0.00 0.00 0.00 0.00 0.00 0.00 0.00 0.00
0.01 0.01 0.01 0.00 0.00 0.00 0.00 0.00 0.01 0.01 0.00 0.00 0.00 0.00 0.00 0.00 0.00 0.00 0.00 0.00 0.00 0.00 0.00 0.00 0.00 0.00 0.00 0.00 0.00 0.00 0.00 0.00 0.00 0.00 0.00 0.00 0.00 0.00 0.00 0.00 0.00 0.00 0.00 0.00 0.00
0.01 0.01 0.00 0.00 0.00 0.00 0.00 0.00 0.02 0.01 0.00 0.00 0.00 0.00 0.00 0.00 0.00 0.00 0.00 0.00 0.00 0.00 0.00 0.00 0.00 0.00 0.00 0.00 0.00 0.00 0.00 0.00 0.00 0.00 0.00 0.00 0.00 0.00 0.00 0.00 0.00 0.00 0.00 0.00 0.01
0.00 0.00 0.00 0.00 0.00 0.00 0.00 0.00 0.00 0.01 0.00 0.00 0.00 0.00 0.00 0.00 0.00 0.00 0.00 0.00 0.00 0.00 0.00 0.00 0.00 0.00 0.00 0.00 0.00 0.00 0.00 0.00 0.00 0.00 0.00 0.00 0.00 0.00 0.00 0.00 0.01 0.00 0.00 0.00 0.01
0.00 0.00 0.00 0.00 0.00 0.00 0.00 0.00 0.01 0.01 0.00 0.00 0.00 0.00 0.00 0.00 0.00 0.00 0.00 0.00 0.00 0.00 0.00 0.00 0.00 0.00 0.00 0.00 0.00 0.00 0.01 0.00 0.00 0.00 0.00 0.02 0.00 0.00 0.00 0.00 0.00 0.00 0.00 0.00 0.00
0.00 0.00 0.00 0.00 0.00 0.00 0.01 0.03 0.02 0.00 0.00 0.00 0.00 0.00 0.00 0.00 0.00 0.00 0.00 0.00 0.00 0.00 0.00 0.00 0.00 0.00 0.01 0.02 0.01 0.01 0.00 0.00 0.00 0.00 0.00 0.00 0.00 0.00 0.00 0.00 0.00 0.00 0.01 0.01 0.00
0.00 0.00 0.00 0.00 0.00 0.01 0.03 0.04 0.01 0.01 0.01 0.00 0.00 0.00 0.00 0.00 0.00 0.00 0.00 0.00 0.00 0.00 0.00 0.00 0.00 0.01 0.01 0.01 0.00 0.00 0.01 0.00 0.00 0.00 0.00 0.00 0.00 0.01 0.01 0.02 0.02 0.01 0.00 0.01 0.01
0.01 0.00 0.00 0.00 0.00 0.01 0.02 0.03 0.01 0.00 0.01 0.00 0.00 0.00 0.00 0.00 0.00 0.00 0.00 0.00 0.00 0.00 0.00 0.00 0.01 0.01 0.00 0.00 0.00 0.00 0.00 0.00 0.00 0.01 0.01 0.00 0.00 0.00 0.01 0.04 0.02 0.01 0.02 0.00 0.00
0.01 0.00 0.00 0.00 0.00 0.00 0.01 0.01 0.01 0.00 0.00 0.00 0.00 0.00 0.00 0.00 0.00 0.00 0.00 0.00 0.00 0.00 0.00 0.01 0.01 0.00 0.01 0.01 0.01 0.01 0.00 0.00 0.00 0.01 0.02 0.01 0.02 0.02 0.03 0.01 0.00 0.00 0.01 0.00 0.00
0.01 0.00 0.00 0.00 0.00 0.01 0.02 0.01 0.01 0.00 0.00 0.00 0.00 0.00 0.00 0.00 0.00 0.00 0.00 0.00 0.00 0.00 0.00 0.00 0.00 0.00 0.00 0.00 0.01 0.00 0.00 0.01 0.01 0.02 0.02 0.03 0.01 0.01 0.01 0.00 0.00 0.00 0.00 0.00 0.00
0.01 0.01 0.00 0.00 0.00 0.00 0.02 0.02 0.02 0.01 0.00 0.00 0.00 0.00 0.00 0.00 0.00 0.00 0.00 0.00 0.00 0.00 0.00 0.00 0.00 0.00 0.00 0.00 0.01 0.01 0.00 0.01 0.03 0.02 0.03 0.01 0.02 0.00 0.00 0.00 0.00 0.00 0.00 0.02 0.05
0.04 0.00 0.00 0.00 0.00 0.00 0.01 0.00 0.02 0.01 0.01 0.00 0.00 0.00 0.00 0.00 0.00 0.00 0.00 0.00 0.00 0.00 0.02 0.01 0.02 0.01 0.00 0.01 0.02 0.02 0.02 0.00 0.00 0.01 0.01 0.01 0.01 0.00 0.00 0.00 0.00 0.00 0.01 0.06 0.04
0.02 0.01 0.02 0.00 0.00 0.01 0.01 0.00 0.00 0.00 0.01 0.00 0.00 0.01 0.00 0.00 0.00 0.00 0.00 0.00 0.00 0.00 0.00 0.00 0.00 0.00 0.00 0.00 0.00 0.00 0.01 0.00 0.00 0.01 0.01 0.00 0.00 0.00 0.00 0.00 0.00 0.00 0.03 0.05 0.01
0.02 0.03 0.04 0.01 0.00 0.02 0.02 0.00 0.00 0.01 0.00 0.00 0.00 0.00 0.00 0.00 0.00 0.00 0.01 0.00 0.01 0.00 0.00 0.00 0.00 0.00 0.00 0.00 0.00 0.01 0.02 0.01 0.01 0.01 0.01 0.00 0.00 0.00 0.00 0.00 0.00 0.00 0.02 0.02 0.00
0.04 0.04 0.02 0.01 0.01 0.00 0.01 0.00 0.01 0.01 0.00 0.00 0.00 0.00 0.00 0.01 0.00 0.00 0.01 0.00 0.00 0.00 0.00 0.00 0.01 0.00 0.00 0.01 0.01 0.01 0.00 0.00 0.02 0.01 0.00 0.00 0.00 0.00 0.00 0.00 0.01 0.01 0.00 0.00 0.00
0.03 0.02 0.02 0.01 0.01 0.01 0.00 0.00 0.01 0.01 0.00 0.00 0.00 0.00 0.00 0.00 0.00 0.00 0.00 0.00 0.00 0.00 0.00 0.01 0.00 0.00 0.00 0.00 0.00 0.00 0.00 0.00 0.00 0.00 0.00 0.00 0.00 0.00 0.00 0.00 0.01 0.00 0.00 0.00 0.00
0.02 0.01 0.00 0.00 0.00 0.01 0.00 0.01 0.01 0.01 0.00 0.00 0.00 0.00 0.00 0.00 0.00 0.00 0.01 0.00 0.00 0.00 0.00 0.00 0.01 0.00 0.00 0.00 0.00 0.00 0.00 0.00 0.00 0.00 0.00 0.00 0.00 0.00 0.00 0.00 0.00 0.00 0.00 0.00 0.00
0.00 0.00 0.02 0.00 0.00 0.00 0.01 0.01 0.01 0.00 0.00 0.00 0.00 0.00 0.00 0.00 0.00 0.00 0.01 0.00 0.00 0.00 0.00 0.00 0.01 0.00 0.00 0.00 0.00 0.00 0.00 0.00 0.00 0.00 0.00 0.00 0.00 0.01 0.00 0.00 0.00 0.00 0.00 0.00 0.00
0.00 0.00 0.01 0.01 0.00 0.00 0.02 0.01 0.01 0.00 0.00 0.00 0.00 0.00 0.00 0.00 0.00 0.00 0.00 0.00 0.00 0.00 0.00 0.00 0.00 0.01 0.00 0.00 0.00 0.00 0.00 0.00 0.00 0.00 0.00 0.00 0.00 0.01 0.00 0.00 0.00 0.00 0.00 0.00 0.00
0.00 0.00 0.01 0.00 0.01 0.00 0.00 0.00 0.00 0.00 0.00 0.00 0.00 0.00 0.00 0.00 0.00 0.00 0.00 0.00 0.00 0.00 0.00 0.00 0.00 0.01 0.00 0.00 0.00 0.00 0.00 0.00 0.00 0.00 0.00 0.00 0.00 0.00 0.00 0.00 0.00 0.00 0.00 0.00 0.00
0.00 0.00 0.00 0.00 0.00 0.00 0.00 0.00 0.00 0.00 0.00 0.00 0.00 0.00 0.00 0.00 0.00 0.00 0.00 0.00 0.00 0.00 0.00 0.00 0.00 0.00 0.00 0.00 0.00 0.00 0.00 0.00 0.00 0.00 0.00 0.00 0.00 0.00 0.00 0.00 0.00 0.00 0.00 0.00 0.00
0.00 0.00 0.00 0.00 0.00 0.00 0.00 0.00 0.00 0.00 0.00 0.00 0.00 0.00 0.00 0.00 0.00 0.00 0.00 0.00 0.00 0.00 0.00 0.00 0.00 0.00 0.00 0.00 0.00 0.00 0.00 0.00 0.00 0.00 0.00 0.00 0.00 0.00 0.00 0.00 0.00 0.00 0.00 0.00 0.00
0.00 0.00 0.00 0.00 0.00 0.00 0.00 0.00 0.00 0.00 0.00 0.00 0.00 0.00 0.00 0.00 0.00 0.00 0.00 0.00 0.00 0.00 0.00 0.00 0.00 0.00 0.00 0.00 0.00 0.00 0.00 0.00 0.00 0.00 0.00 0.00 0.00 0.00 0.00 0.00 0.00 0.00 0.00 0.00 0.00
0.00 0.00 0.00 0.00 0.00 0.00 0.00 0.00 0.00 0.00 0.00 0.00 0.00 0.00 0.00 0.00 0.00 0.00 0.00 0.00 0.00 0.00 0.00 0.00 0.00 0.00 0.00 0.00 0.00 0.00 0.00 0.00 0.00 0.00 0.00 0.00 0.00 0.00 0.00 0.00 0.00 0.00 0.00 0.00 0.00
MSLP
1016.71 1016.38 1015.93 1015.51 1015.14 1014.67 1014.04 1013.37 1013.68 1013.83 1014.05 1014.36 1014.70 1014.73 1014.84 1014.76 1014.86 1015.04 1014.48 1013.46 1013.35 1013.88 1014.50 1014.05 1014.04 1013.95 1014.00 1014.49 1014.40 1014.37 1014.06 1012.39 1012.29 1011.54 1010.40 1009.71 1008.86 1008.26 1007.51 1006.90 1006.27 1005.45 1005.23 1005.14 1004.79
1016.64 1016.24 1015.81 1015.48 1015.08 1014.61 1014.01 1013.47 1012.85 1013.23 1013.62 1013.99 1014.24 1014.50 1014.57 1014.61 1014.38 1013.62 1012.83 1013.19 1013.51 1013.90 1014.42 1014.01 1013.73 1013.58 1014.00 1014.20 1014.48 1014.56 1013.64 1012.62 1012.38 1011.68 1010.85 1010.22 1009.47 1008.94 1008.42 1007.29 1006.58 1006.07 1005.19 1005.16 1006.12
1016.69 1016.17 1015.64 1015.36 1014.93 1014.53 1014.11 1013.37 1012.41 1012.41 1013.01 1013.63 1013.90 1014.05 1014.48 1014.51 1013.85 1012.07 1012.29 1013.00 1013.54 1013.77 1013.98 1014.09 1013.84 1014.06 1014.07 1013.97 1013.94 1014.14 1013.17 1012.97 1012.42 1011.97 1011.29 1010.66 1009.92 1009.32 1008.70 1007.55 1007.16 1006.70 1005.92 1005.44 1005.49
1016.69 1016.17 1015.76 1015.42 1015.01 1014.45 1013.87 1013.35 1012.87 1011.96 1012.60 1013.08 1013.59 1014.01 1014.13 1014.39 1012.99 1012.21 1012.64 1013.11 1013.47 1013.53 1013.43 1013.80 1014.05 1014.05 1014.03 1013.74 1013.42 1013.31 1013.05 1012.71 1012.14 1011.89 1011.59 1010.88 1010.39 1009.41 1008.78 1007.88 1007.63 1006.84 1006.51 1005.98 1005.70
1016.53 1016.16 1015.72 1015.29 1014.86 1014.31 1013.79 1013.32 1012.88 1012.08 1012.35 1012.52 1013.22 1013.79 1014.15 1013.79 1012.11 1012.01 1012.70 1013.28 1013.52 1013.43 1013.37 1013.64 1013.82 1013.58 1013.51 1013.33 1013.07 1012.82 1012.69 1012.43 1011.97 1011.68 1011.33 1010.83 1010.11 1009.49 1008.55 1008.23 1007.75 1007.26 1006.76 1006.69 1006.56
1016.35 1015.97 1015.67 1015.27 1014.65 1014.18 1013.67 1012.97 1012.72 1012.40 1012.01 1012.26 1012.95 1013.48 1013.37 1012.94 1011.48 1011.85 1012.38 1012.96 1013.21 1013.40 1013.43 1013.65 1013.60 1013.49 1013.62 1013.53 1013.57 1013.11 1012.90 1012.31 1011.94 1011.49 1011.12 1010.80 1009.93 1009.28 1008.51 1008.53 1007.92 1007.42 1007.11 1006.81 1007.10
1015.99 1015.75 1015.45 1014.94 1014.55 1013.89 1013.19 1012.37 1012.13 1011.75 1011.88 1012.21 1012.71 1012.79 1012.92 1011.93 1011.40 1011.65 1012.29 1012.73 1013.03 1013.26 1013.21 1013.36 1013.69 1014.03 1013.79 1013.54 1013.17 1013.32 1013.05 1012.25 1011.43 1011.17 1010.55 1010.69 1009.41 1008.61 1008.16 1008.12 1007.68 1007.32 1007.47 1007.17 1006.96
1015.65 1015.31 1015.02 1014.64 1014.19 1013.49 1012.41 1010.78 1010.76 1011.22 1011.65 1012.19 1012.56 1012.35 1012.18 1011.12 1011.51 1011.82 1012.21 1012.79 1013.10 1013.30 1013.42 1013.67 1013.93 1014.07 1013.99 1013.90 1013.60 1013.53 1013.63 1012.32 1010.25 1009.87 1009.42 1010.46 1007.94 1007.51 1007.66 1007.76 1007.25 1007.39 1007.76 1007.41 1006.94
1015.39 1015.04 1014.68 1014.26 1013.89 1013.11 1012.17 1009.95 1010.12 1011.16 1011.85 1012.07 1012.58 1012.39 1011.66 1011.42 1011.43 1011.49 1011.90 1012.33 1012.65 1013.35 1013.65 1013.86 1013.95 1014.02 1013.87 1014.14 1013.92 1013.70 1012.94 1011.89 1010.04 1008.61 1008.77 1009.06 1007.59 1007.44 1007.48 1007.17 1006.88 1007.22 1007.29 1007.62 1006.88
1015.05 1014.71 1014.38 1014.15 1013.76 1013.00 1012.59 1011.64 1011.25 1011.54 1012.15 1012.46 1012.23 1012.61 1011.49 1010.90 1011.06 1011.44 1011.89 1012.38 1012.85 1013.41 1013.99 1014.12 1014.11 1013.93 1013.60 1013.99 1013.47 1012.67 1012.33 1011.26 1009.69 1008.31 1008.42 1008.28 1007.39 1007.32 1007.34 1007.33 1006.74 1006.99 1007.36 1007.56 1006.27
1014.98 1014.51 1014.16 1013.80 1013.61 1013.05 1012.94 1013.20 1012.21 1012.45 1011.56 1011.11 1010.87 1010.55 1010.33 1010.95 1011.37 1011.60 1012.09 1012.54 1012.82 1013.34 1013.57 1013.51 1013.71 1012.93 1012.73 1012.93 1012.55 1012.30 1011.63 1010.33 1008.87 1007.87 1008.38 1007.77 1007.29 1007.20 1007.36 1007.19 1006.56 1006.47 1007.67 1007.15 1006.41
1014.96 1014.37 1013.91 1013.51 1013.33 1012.94 1012.90 1013.13 1012.83 1013.14 1011.52 1010.74 1010.48 1010.48 1010.46 1010.86 1011.10 1011.53 1012.05 1012.38 1012.69 1012.80 1012.70 1013.00 1012.32 1011.85 1012.12 1012.10 1011.95 1011.58 1010.71 1009.65 1008.57 1007.73 1007.76 1006.91 1006.65 1006.61 1007.07 1007.34 1006.81 1005.95 1006.22 1006.15 1005.85
1014.60 1014.27 1013.80 1013.25 1012.95 1012.60 1012.55 1012.83 1012.43 1012.24 1011.60 1009.63 1010.08 1010.08 1010.40 1011.02 1010.55 1010.99 1011.85 1011.91 1012.19 1012.14 1011.91 1011.88 1010.83 1011.08 1011.53 1011.31 1011.20 1010.57 1009.86 1008.75 1008.49 1007.72 1007.08 1006.79 1006.61 1006.19 1005.88 1005.79 1005.78 1005.86 1006.03 1006.05 1005.29
1014.35 1014.03 1013.63 1013.20 1012.69 1012.60 1012.38 1012.71 1012.21 1012.51 1011.57 1010.51 1009.84 1009.54 1009.98 1010.66 1010.54 1010.64 1011.44 1011.56 1011.69 1011.67 1011.64 1011.40 1010.33 1010.07 1010.77 1010.61 1010.54 1009.23 1007.84 1007.58 1007.76 1007.40 1006.78 1006.33 1006.28 1005.96 1005.96 1005.81 1006.17 1006.10 1006.05 1005.47 1004.97
1014.16 1013.73 1013.52 1013.64 1013.54 1013.09 1012.78 1012.53 1012.52 1012.45 1011.20 1010.41 1009.99 1009.74 1009.84 1010.38 1010.36 1011.03 1011.21 1011.48 1011.44 1011.47 1011.58 1010.70 1010.22 1010.23 1010.09 1009.48 1009.37 1007.93 1007.99 1007.76 1007.29 1007.26 1007.02 1006.14 1006.69 1006.63 1006.89 1006.35 1006.28 1005.94 1005.64 1005.40 1005.28
1013.59 1013.34 1013.44 1013.43 1013.20 1013.26 1012.86 1012.80 1012.93 1012.42 1010.41 1009.98 1010.13 1009.96 1010.18 1010.18 1010.23 1011.04 1011.60 1012.11 1011.92 1011.86 1011.34 1010.69 1010.55 1010.71 1010.11 1009.42 1008.83 1008.26 1007.65 1007.27 1007.13 1007.15 1006.57 1006.43 1006.88 1007.15 1007.85 1007.62 1006.82 1006.25 1005.90 1005.90 1006.21
1013.07 1012.98 1013.23 1013.25 1013.05 1013.00 1013.25 1013.04 1012.80 1011.32 1010.17 1009.95 1009.63 1009.69 1009.58 1009.83 1010.03 1010.62 1011.24 1011.69 1011.80 1011.76 1011.11 1010.53 1010.55 1010.61 1010.36 1009.44 1008.25 1008.21 1007.69 1006.95 1006.79 1006.58 1006.38 1006.39 1006.98 1008.10 1008.48 1007.94 1007.27 1006.92 1006.74 1006.47 1006.86
1012.58 1012.50 1012.60 1012.50 1012.84 1013.00 1013.54 1013.49 1011.91 1010.43 1009.50 1009.00 1009.08 1009.32 1009.47 1009.22 1009.69 1009.78 1010.45 1010.95 1011.41 1011.43 1011.16 1010.35 1010.58 1010.10 1009.21 1008.64 1008.26 1007.91 1007.83 1006.88 1006.37 1005.86 1006.53 1006.91 1007.66 1008.30 1008.55 1008.19 1008.13 1007.90 1007.77 1007.84 1008.11
1011.82 1012.17 1012.57 1012.63 1012.67 1013.01 1013.45 1012.96 1011.70 1010.44 1009.76 1008.94 1008.90 1008.88 1008.95 1008.72 1009.06 1009.32 1010.01 1010.27 1010.31 1010.67 1010.42 1009.37 1009.55 1009.25 1008.75 1007.86 1007.69 1006.87 1006.67 1006.08 1006.08 1005.35 1006.21 1007.47 1008.44 1008.28 1008.64 1008.84 1008.82 1008.71 1008.55 1008.72 1008.52
1012.12 1012.73 1013.38 1013.25 1013.19 1013.51 1013.88 1012.51 1011.58 1010.58 1009.45 1008.84 1008.11 1008.11 1007.87 1008.23 1009.00 1009.42 1009.28 1008.89 1009.28 1009.07 1009.05 1008.54 1008.86 1008.63 1007.83 1007.40 1006.63 1006.55 1006.21 1005.85 1005.71 1005.64 1006.30 1007.26 1008.66 1009.46 1009.74 1009.68 1010.01 1009.56 1009.33 1009.38 1008.97
1012.39 1012.96 1014.61 1013.91 1013.79 1013.73 1013.34 1012.65 1011.90 1010.66 1009.64 1008.95 1007.92 1007.41 1007.25 1007.90 1008.41 1008.35 1008.44 1008.61 1008.26 1008.07 1008.01 1007.78 1008.16 1008.81 1008.06 1007.42 1006.98 1006.44 1006.03 1005.51 1005.59 1005.56 1006.46 1007.72 1009.93 1009.85 1010.20 1010.39 1010.47 1010.45 1010.18 1009.83 1009.63
1012.72 1013.77 1014.89 1014.55 1014.09 1013.78 1013.18 1012.99 1012.64 1011.34 1010.01 1009.19 1008.39 1007.54 1007.35 1007.43 1007.65 1007.71 1008.25 1008.45 1008.13 1007.77 1007.63 1007.71 1007.90 1007.94 1007.64 1007.36 1007.05 1006.66 1006.19 1005.77 1005.87 1006.06 1006.43 1008.12 1010.87 1010.61 1010.75 1010.75 1010.90 1010.72 1010.36 1010.14 1010.06
1013.78 1014.56 1014.48 1014.47 1013.71 1013.34 1012.84 1012.92 1012.56 1011.61 1010.64 1009.51 1008.49 1008.11 1007.67 1007.62 1007.70 1007.74 1008.04 1008.42 1008.15 1007.94 1008.18 1008.09 1008.10 1008.30 1008.00 1007.80 1007.09 1006.86 1006.38 1005.85 1005.71 1005.92 1006.74 1008.06 1010.96 1011.08 1011.26 1011.24 1011.18 1011.04 1010.80 1010.81 1010.80
1013.92 1014.50 1014.34 1014.01 1013.43 1012.90 1012.76 1013.14 1012.80 1011.91 1011.08 1009.82 1008.75 1008.11 1007.75 1007.69 1007.50 1007.85 1008.10 1008.30 1008.24 1008.18 1008.08 1008.41 1008.73 1008.89 1009.10 1009.04 1008.67 1008.02 1007.22 1006.55 1006.36 1007.13 1007.78 1008.99 1010.29 1010.95 1010.73 1010.70 1010.82 1010.97 1011.02 1011.24 1011.21
1013.95 1014.92 1014.81 1014.30 1013.96 1013.41 1013.25 1013.25 1012.67 1012.02 1010.87 1009.72 1008.80 1008.26 1008.10 1008.03 1007.99 1008.13 1008.21 1008.18 1008.23 1008.09 1008.11 1008.30 1009.56 1009.87 1009.80 1009.39 1008.91 1008.52 1008.15 1007.55 1007.34 1007.48 1008.23 1009.28 1009.47 1009.99 1010.36 1010.59 1010.51 1010.56 1011.01 1011.38 1011.78
1014.91 1015.12 1014.88 1014.76 1014.46 1013.78 1013.44 1013.27 1012.73 1011.87 1010.93 1010.03 1009.31 1008.84 1008.78 1008.79 1008.46 1008.33 1008.20 1008.39 1008.54 1008.30 1008.46 1008.58 1009.79 1010.25 1010.15 1009.87 1009.36 1009.04 1008.88 1008.58 1008.36 1008.48 1008.66 1008.94 1009.21 1009.15 1009.52 1010.15 1010.67 1011.27 1011.54 1012.02 1012.11
1015.54 1015.46 1015.50 1015.38 1014.87 1014.25 1013.95 1013.34 1012.48 1011.69 1011.03 1010.69 1010.07 1009.44 1009.79 1009.80 1009.13 1008.79 1008.61 1008.70 1008.89 1008.86 1008.94 1009.35 1010.00 1010.51 1010.83 1010.57 1010.09 1009.96 1009.94 1009.62 1009.47 1009.21 1009.39 1009.51 1009.58 1009.47 1009.75 1010.15 1010.72 1011.33 1011.78 1012.52 1012.86
Thickness
5572 5571 5571 5571 5572 5575 5578 5581 5578 5576 5574 5569 5565 5563 5560 5560 5559 5558 5560 5570 5570 5565 5560 5565 5563 5564 5566 5560 5564 5566 5563 5582 5583 5588 5602 5617 5618 5636 5647 5645 5663 5676 5678 5686 5695
5558 5558 5558 5557 5558 5561 5565 5568 5572 5569 5565 5561 5559 5555 5552 5552 5555 5560 5565 5562 5559 5556 5552 5553 5554 5558 5551 5551 5550 5548 5558 5571 5578 5582 5584 5597 5604 5613 5614 5631 5641 5653 5673 5683 5669
5542 5542 5544 5544 5546 5548 5551 5555 5562 5563 5557 5552 5551 5548 5543 5543 5549 5566 5561 5554 5549 5548 5547 5545 5544 5541 5539 5541 5543 5542 5552 5557 5566 5566 5572 5577 5586 5601 5599 5612 5625 5632 5653 5666 5666
5525 5526 5527 5527 5529 5533 5537 5541 5545 5552 5547 5545 5542 5538 5536 5534 5546 5555 5549 5544 5540 5540 5542 5538 5533 5529 5528 5531 5536 5535 5546 5550 5556 5555 5554 5561 5569 5579 5585 5606 5613 5623 5634 5646 5648
5510 5508 5509 5510 5513 5516 5520 5525 5530 5537 5536 5538 5534 5529 5527 5527 5538 5548 5538 5533 5531 5532 5531 5528 5525 5527 5523 5526 5528 5529 5535 5539 5543 5544 5546 5552 5555 5560 5577 5589 5595 5604 5614 5623 5626
5496 5493 5491 5493 5496 5500 5504 5512 5516 5521 5527 5528 5524 5522 5523 5517 5540 5538 5534 5528 5526 5522 5521 5518 5517 5519 5514 5511 5508 5516 5519 5524 5527 5528 5532 5530 5540 5548 5567 5568 5573 5585 5592 5604 5606
5481 5478 5476 5478 5480 5484 5491 5500 5505 5512 5514 5515 5514 5517 5517 5520 5531 5531 5526 5522 5518 5515 5512 5512 5508 5502 5503 5500 5506 5501 5497 5508 5513 5514 5522 5510 5530 5539 5555 5549 5554 5567 5571 5581 5596
5467 5465 5463 5462 5465 5470 5480 5496 5500 5501 5504 5503 5504 5510 5512 5524 5523 5522 5519 5513 5510 5506 5502 5498 5494 5490 5489 5490 5491 5490 5480 5484 5512 5514 5516 5495 5526 5532 5535 5532 5542 5548 5544 5560 5579
5450 5446 5445 5445 5447 5455 5467 5488 5491 5489 5488 5492 5494 5500 5510 5514 5515 5517 5515 5509 5505 5496 5490 5487 5484 5482 5486 5473 5475 5477 5475 5488 5508 5522 5519 5505 5509 5515 5517 5523 5533 5540 5541 5550 5571
5432 5428 5427 5426 5428 5438 5446 5459 5468 5473 5475 5479 5489 5487 5504 5512 5512 5511 5508 5501 5494 5487 5478 5476 5476 5474 5483 5474 5477 5497 5482 5492 5507 5528 5519 5513 5513 5510 5511 5515 5530 5533 5538 5546 5571
5408 5409 5405 5407 5407 5419 5430 5436 5453 5458 5473 5488 5494 5505 5509 5506 5505 5504 5498 5492 5488 5482 5474 5481 5471 5476 5484 5487 5487 5491 5496 5505 5522 5533 5517 5516 5520 5521 5519 5516 5533 5540 5534 5549 5564
5384 5384 5381 5385 5394 5407 5420 5428 5436 5441 5468 5482 5492 5498 5504 5503 5501 5498 5493 5488 5484 5479 5491 5485 5485 5497 5499 5498 5493 5497 5504 5509 5523 5526 5525 5534 5530 5530 5525 5517 5529 5548 5549 5557 5570
5371 5368 5371 5378 5387 5401 5415 5422 5433 5445 5461 5494 5490 5496 5497 5495 5502 5497 5490 5491 5486 5491 5498 5493 5509 5506 5499 5500 5497 5502 5507 5519 5515 5526 5535 5536 5531 5537 5543 5546 5550 5551 5553 5560 5577
5366 5365 5368 5373 5387 5395 5408 5419 5433 5440 5461 5476 5488 5495 5496 5494 5496 5498 5492 5494 5494 5496 5499 5498 5512 5515 5500 5503 5503 5514 5539 5536 5524 5529 5530 5541 5532 5538 5542 5547 5544 5551 5555 5572 5582
5364 5366 5366 5366 5373 5385 5399 5416 5428 5440 5484 5478 5484 5491 5494 5495 5498 5491 5495 5495 5499 5500 5500 5510 5512 5505 5510 5520 5519 5533 5530 5526 5531 5527 5522 5541 5534 5531 5531 5546 5547 5558 5569 5576 5584
5369 5370 5366 5367 5377 5386 5401 5414 5426 5451 5486 5476 5478 5483 5487 5496 5501 5494 5490 5488 5490 5492 5501 5508 5511 5503 5512 5516 5523 5529 5533 5536 5535 5530 5543 5544 5538 5539 5523 5528 5545 5562 5571 5579 5582
5374 5373 5368 5374 5385 5395 5405 5420 5440 5462 5476 5477 5484 5491 5499 5500 5504 5501 5494 5490 5495 5496 5501 5503 5499 5496 5504 5512 5528 5527 5527 5539 5541 5542 5546 5552 5545 5525 5521 5539 5552 5560 5569 5578 5585
5376 5377 5381 5389 5396 5406 5412 5427 5459 5475 5483 5497 5496 5497 5489 5509 5507 5513 5506 5498 5490 5491 5498 5516 5518 5507 5522 5527 5526 5527 5525 5536 5543 5555 5546 5545 5546 5534 5535 5547 5554 5561 5569 5574 5574
5384 5388 5392 5401 5409 5417 5421 5442 5453 5474 5486 5495 5499 5500 5500 5515 5515 5515 5504 5495 5508 5500 5512 5523 5520 5521 5524 5538 5538 5543 5541 5554 5545 5569 5555 5544 5537 5547 5550 5552 5555 5562 5568 5565 5574
5403 5404 5403 5413 5420 5425 5426 5451 5463 5475 5493 5501 5506 5512 5515 5518 5506 5503 5509 5528 5516 5525 5524 5533 5526 5530 5540 5544 5550 5546 5555 5547 5547 5553 5553 5552 5547 5547 5539 5549 5551 5555 5560 5565 5575
5428 5425 5411 5422 5430 5435 5446 5456 5464 5482 5494 5499 5512 5521 5527 5519 5516 5522 5528 5528 5534 5535 5537 5541 5535 5525 5536 5541 5541 5551 5550 5563 5563 5564 5551 5559 5539 5547 5545 5544 5549 5553 5560 5565 5570
5448 5440 5428 5435 5439 5445 5459 5458 5461 5474 5493 5500 5511 5524 5526 5529 5529 5532 5526 5526 5535 5540 5540 5543 5544 5535 5544 5550 5554 5555 5560 5565 5547 5556 5561 5552 5532 5541 5542 5545 5551 5552 5562 5568 5572
5456 5449 5449 5449 5468 5467 5478 5471 5471 5477 5487 5502 5515 5521 5528 5528 5527 5534 5533 5532 5537 5538 5536 5541 5537 5529 5540 5549 5558 5558 5565 5573 5581 5575 5569 5549 5531 5540 5539 5545 5548 5550 5560 5565 5567
5473 5467 5468 5470 5477 5488 5485 5468 5467 5480 5483 5505 5518 5526 5531 5531 5538 5533 5534 5536 5539 5541 5540 5542 5538 5533 5519 5533 5541 5546 5559 5571 5570 5550 5561 5553 5545 5544 5555 5558 5559 5560 5562 5561 5563
5487 5472 5473 5474 5475 5483 5477 5470 5477 5471 5496 5511 5523 5530 5532 5531 5534 5535 5540 5541 5546 5550 5550 5550 5530 5523 5541 5547 5551 5553 5557 5565 5565 5573 5555 5558 5558 5556 5555 5556 5562 5566 5561 5560 5560
5485 5480 5480 5474 5474 5481 5476 5469 5475 5491 5503 5513 5522 5532 5533 5530 5538 5539 5545 5543 5541 5551 5551 5555 5528 5540 5547 5550 5555 5552 5556 5561 5563 5569 5567 5565 5563 5573 5570 5566 5562 5559 5560 5556 5558
5484 5480 5474 5470 5473 5475 5474 5477 5489 5501 5512 5516 5524 5532 5527 5529 5539 5544 5547 5548 5547 5547 5549 5548 5541 5532 5537 5545 5553 5548 5547 5554 5558 5560 5564 5557 5566 5572 5572 5572 5567 5562 5559 5553 5553